Regional Weather Roundup
Issued by NWS Pendleton, OR

Home | Current Version | Previous Version | Text Only | Print | Product List | Glossary On
Versions: 1 2 3 4 5 6 7 8 9 10 11 12 13 14 15 16 17 18 19 20 21 22 23 24 25 26 27 28 29 30 31 32 33 34 35 36 37 38 39 40 41 42 43 44 45 46 47 48 49 50
000
ASUS46 KPDT 161504
RWRPDT
PENDLETON REGIONAL WEATHER ROUNDUP
NATIONAL WEATHER SERVICE PENDLETON OREGON
700 AM PST SAT DEC 16 2017

NOTE: FAIR INDICATES FEW OR NO CLOUDS BELOW 12,000 FEET WITH NO
SIGNIFICANT WEATHER AND/OR OBSTRUCTIONS TO VISIBILITY.

# INDICATES UNOFFICIAL STATION AND DATA

WAZ520-161610-
EAST SLOPES OF WASHINGTON CASCADES

CITY            SKY/WX      TMP DP  RH  WIND    PRES   REMARKS
#BULLFROG       N/A         30  29  96  W1      N/A
#CLE ELUM HS    N/A         34  30  85  CALM    30.16R
#CLE ELUM LAKE  N/A         31  30  96  CALM    30.03S
#EASTON DOT     N/A         31  31  100 N3      N/A
#ELK HTS DOT    N/A         33  33  100 W1      N/A
#GLENWOOD       N/A         24  23  96  CALM    30.33S
#NELSON 3SW     N/A         32  28  85  CALM    30.47F
#NILE           N/A         25  24  96  CALM    29.55S
#TEANAWAY 4NE   N/A         26  26  100 CALM    N/A
#TROUT LAKE 1NE N/A         32  29  89  NW1     30.30S
#TROUT LAKE 1E  N/A         29  27  92  CALM    30.26S
$$

WAZ521-161610-
SIMCOE HIGHLANDS

CITY            SKY/WX      TMP DP  RH  WIND    PRES   REMARKS
#BICKLETON HS   N/A         N/A N/A N/A CALM    30.29R
#CENTERVILLE 1SWN/A         32  27  82  CALM    30.27R
#GOLDENDALE 1NE N/A         31  23  72  SW2     N/A
#GOLDENDALE 4W  N/A         32  20  61  NW8     30.26S
#GOODNOE HILLS  N/A         36  30  79  W8      30.15R
#LYLE 6NE       N/A         37  33  85  SW6     30.32S
#PITT 4SE       N/A         32  30  92  CALM    30.36R
$$

WAZ026-161610-
KITTITAS VALLEY

CITY            SKY/WX      TMP DP  RH  WIND    PRES   REMARKS
ELLENSBURG AP   CLEAR       36  29  75  W9      30.20S
#ELLENSBURG CWU N/A         33  29  85  W1      30.22S
#ELLENSBURG 3NE N/A         33  30  89  CALM    28.27S
#ELLENSBURG 1E  N/A         25  24  96  SE1     30.34R
#KITTITAS 3S    N/A         20  18  92  CALM    30.29R
#MANASTASH RDG  N/A         30  30  100 CALM    N/A
#ROCKY CYN DOT  N/A         32  30  92  W1      N/A
#RYEGRASS DOT   N/A         28  26  92  W6      N/A
$$

WAZ027-161610-
YAKIMA VALLEY

CITY            SKY/WX      TMP DP  RH  WIND    PRES   REMARKS
SUNNYSIDE AP    PTCLDY      21  19  92  CALM    30.28R
YAKIMA AIRPORT  PTCLDY      22  19  88  W6      30.25R
YAKIMA-VAGABOND CLEAR       28  22  78  SW3     30.20S
#DONALD 2NE     N/A         24  18  77  N1      29.09S
#GRANDVIEW      N/A         26  24  92  CALM    30.22R
#MABTON         N/A         22  21  96  CALM    30.27R
#MOXEE 2E       N/A         30  N/A N/A S2      30.21R
#NACHES 2SW     N/A         36  30  79  SW6     30.20R
#OUTLOOK DOT    N/A         26  26  100 CALM    30.24R
#PARKER DOT     N/A         26  25  96  CALM    30.25R
#TERRACE HTS    N/A         24  23  96  CALM    30.27R
#TOPPENISH      N/A         26  25  96  CALM    30.23R
#I82 S UMTANUM RN/A         37  21  52  NW10    N/A
#UNION GAP DOT  N/A         24  23  96  NW1     30.29R
#W YAKIMA       N/A         26  24  92  CALM    30.31R
#WHITE SWAN 5E  N/A         21  20  96  CALM    30.33R
#WILEY CITY 3W  N/A         32  25  75  CALM    30.19R
#ZILLAH DOT     N/A         26  N/A N/A S1      N/A
$$

WAZ028-161610-
LOWER COLUMBIA BASIN...WASHINGTON

CITY            SKY/WX      TMP DP  RH  WIND    PRES   REMARKS
PASCO           CLOUDY      32  30  92  CALM    30.31R
PROSSER AWOS    N/A         25  25  100 CALM    30.32R
RICHLAND AWOS   CLOUDY      31  30  96  SW3     30.31R
#BENTON CITY    N/A         28  27  96  CALM    30.24R
#CONNELL 5N     N/A         28  27  96  CALM    30.32R
#CONNELL 5NW    N/A         29  27  92  CALM    30.26S
#ELTOPIA 6NW    N/A         30  29  96  CALM    29.23R
#KAHLOTUS       N/A         27  26  96  W1      30.31R
#KENNEWICK 3S   N/A         28  26  92  CALM    30.33R
#PATERSON       N/A         24  22  92  CALM    30.30R
#PROSSER DOT    N/A         26  26  100 CALM    30.29R
#SAGEMOOR 2W    N/A         30  28  92  CALM    30.19R
#TOUCHET 2S     N/A         27  25  92  W1      30.30R
#WEST PASCO     N/A         31  29  92  CALM    30.32R
$$

WAZ029-161610-
FOOTHILLS OF THE BLUES...WASHINGTON

CITY            SKY/WX      TMP DP  RH  WIND    PRES   REMARKS
WALLA WALLA AP  CLOUDY      30  27  88  NE5     30.25R
#CLYDE 6NW      N/A         28  26  92  SW1     30.30R
#LOWDEN 2SE     N/A         31  30  96  CALM    30.25R
#PLEASANT VIEW 1N/A         26  25  96  SW3     30.36R
#PRESCOTT       N/A         31  28  88  CALM    30.31R
#WHITMAN COLLEGEN/A         31  29  92  CALM    30.28R
#WAITSBURG 5S   N/A         29  28  96  CALM    30.41R
#WAITSBURG 6SSE N/A         32  30  92  SE3     30.26R
#WAITSBURG 8N   N/A         29  N/A N/A S5      29.97R
#WALLA WALLA 5E N/A         33  31  92  W2      N/A
#WHITMAN MISSIONN/A         32  30  92  CALM    30.32S
$$

WAZ030-161610-
BLUE MOUNTAINS...WASHINGTON

CITY            SKY/WX      TMP DP  RH  WIND    PRES   REMARKS
#DIXIE 5SE      N/A         28  27  96  SW3     30.08R
$$

ORZ009-041-WAZ024-161610-
COLUMBIA RIVER GORGE

CITY            SKY/WX      TMP DP  RH  WIND    PRES   REMARKS
HOOD RIVER AP   MOCLDY      41  34  76  NW10    30.29S
THE DALLES AP   MOCLDY      43  33  67  W8      30.30R
#ARLINGTON AIRPON/A         24  22  92  E5      30.32R
#ARLINGTON HS   N/A         25  22  88  SE2     30.23R
#LYLE           N/A         44  36  73  N2      30.32R
#MARYHILL       N/A         37  30  75  N12     30.13R WCI 29
#SMITHVILLE     N/A         43  36  76  N9      30.25S

$$

ORZ510-161610-
NORTH CENTRAL OREGON

CITY            SKY/WX      TMP DP  RH  WIND    PRES   REMARKS
#ANTELOPE       N/A         20  18  92  NE3     30.24R
#CHENOWITH 1W   N/A         36  33  89  NW21    N/A    WCI 25
#DUFUR          N/A         38  29  70  W3      30.28R
#DUFUR 9E       N/A         34  28  78  W3      30.37S
#GRASS VALLEY 1SN/A         34  28  78  NW14    30.21S WCI 25
#MAUPIN SCHOOL  N/A         29  26  88  CALM    30.34R
#SHANIKO 4NW    N/A         27  23  85  SW3     30.19R
#TYGH VALLEY 2NEN/A         28  26  92  W1      30.32S
#WAPANITIA AIRPON/A         32  27  82  CALM    30.35R
#WASCO 5NE      N/A         36  29  75  N8      30.29R
$$

ORZ511-161610-
CENTRAL OREGON

CITY            SKY/WX      TMP DP  RH  WIND    PRES   REMARKS
BEND AIRPORT    PTCLDY      28  21  75  CALM    30.24R
PRINEVILLE AP   PTCLDY      25  25  100 CALM    30.24R
REDMOND AIRPORT PTCLDY      20  18  92  CALM    30.24R
#ASHWOOD SCHOOL N/A         24  23  96  CALM    30.20R
#BEND-AWBREY    N/A         32  22  66  NE2     30.29R
#BEND-KIM LN    N/A         34  21  58  W5      30.26R
#CULVER         N/A         28  24  85  CALM    30.21R
#CULVER 8W      N/A         29  21  72  CALM    30.35R
#LAKE BILLY CHINN/A         34  N/A N/A E3      30.32S
#MADRAS 4S      N/A         32  -3  21  CALM    N/A
#POWELL BUTTE   N/A         30  22  72  W7      30.15S
#PRINEVILLE     N/A         21  19  92  CALM    30.45R
#PRINEVILLE 3N  N/A         26  23  88  CALM    30.35R
#WARM SPRINGS   N/A         29  26  88  CALM    30.18R

$$


ORZ509-161610-
EAST SLOPES OF OREGON CASCADES

CITY            SKY/WX      TMP DP  RH  WIND    PRES   REMARKS
SISTERS AWOS    N/A         34  23  64  W10     N/A
#CAMP SHERMAN   N/A         32  24  72  CALM    30.40R
#LA PINE 4NW    N/A         24  19  81  CALM    30.36R
#SISTERS 3N     N/A         32  19  58  W2      30.23S
#SUNRIVER       N/A         20  17  88  CALM    30.18R
#TUMALO 3W      N/A         32  20  61  NW6     30.18R

$$

ORZ044-161610-
LOWER COLUMBIA BASIN...OREGON

CITY            SKY/WX      TMP DP  RH  WIND    PRES   REMARKS
HERMISTON       CLEAR       22  21  96  CALM    30.28R FOG
#BOARDMAN SCHOOLN/A         24  23  96  CALM    30.30R
#BOARDMAN 8SW   N/A         25  24  96  CALM    30.32R
#ECHO 8SW       N/A         25  25  100 CALM    30.28S
#IONE SCHOOL    N/A         32  17  53  CALM    30.32R
#UMATILLA       N/A         24  20  84  CALM    30.24R
$$

ORZ507-161610-
NORTHERN FOOTHILLS OF THE BLUES

CITY            SKY/WX      TMP DP  RH  WIND    PRES   REMARKS
PENDLETON AIRPT PTCLDY      31  29  92  CALM    30.23R
#ADAMS 3WNW     N/A         30  28  92  CALM    30.31R
#ATHENA         N/A         32  30  92  SW1     30.33R
#HELIX SCHOOL   N/A         29  28  96  N1      30.30R
#HELIX 3N       N/A         30  29  96  S6      30.21R
#HOLDMAN 5SE    N/A         28  26  92  CALM    30.22R
#HOLDMAN 6E     N/A         29  28  96  CALM    30.11R
#M-F GROVE ELEM N/A         33  30  89  CALM    30.21S
#M-FREEWATER 5SEN/A         35  32  89  SW5     30.22S
#PENDLETON DNTN N/A         32  29  89  CALM    30.22R
#PDT AQUATIC CTRN/A         32  32  100 CALM    30.20S
#PDT SUNRIDGE   N/A         31  29  92  CALM    30.27R
#PENDLETON 6SE  N/A         34  31  89  S3      30.26R
#PENDLETON 7NW  N/A         29  25  85  CALM    28.66F
#PILOT ROCK 1S  N/A         36  27  69  CALM    30.22S
#PILOT ROCK     N/A         36  30  79  CALM    30.23S
#TUTUILLA       N/A         32  29  89  CALM    30.30R
#UMAPINE 2E     N/A         31  29  92  CALM    30.24S

$$

ORZ508-161610-
SOUTHERN FOOTHILLS OF THE BLUES

CITY            SKY/WX      TMP DP  RH  WIND    PRES   REMARKS
LEXINGTON       CLEAR       32  28  85  E7      30.28R
#AJAX           N/A         35  20  54  N7      30.37R
#CONDON 5W      N/A         27  24  88  W7      30.16R
#FOSSIL SCHOOL  N/A         30  27  88  CALM    30.15R
#HEPPNER EOC    N/A         34  28  78  SW3     30.25R
#HEPPNER 4NE    N/A         31  28  88  SW1     30.32R
#LEXINGTON 2SE  N/A         32  28  85  SE3     30.22R
#MIKKALO        N/A         36  26  67  NW7     30.33R
#OLEX 4N        N/A         35  31  85  SW7     30.23R
#RUGGS 5NE      N/A         30  27  88  SW3     30.36R
#RUGGS 2SW      N/A         30  26  85  W7      30.34R

$$

ORZ502-503-161610-
BLUE MOUNTAINS

CITY            SKY/WX      TMP DP  RH  WIND    PRES   REMARKS
MEACHAM         LGT SNOW    29  27  92  VRB3    30.15R FOG
#GRANITE        N/A         26  19  74  N2      30.30S
#GREENHORN 9SW  N/A         29  27  92  W3      30.15R
#LONG CREEK HS  N/A         29  29  100 N7      30.18R
#PIKES PEAK     N/A         27  25  92  CALM    27.99S
#SUMMERVILLE 5NWN/A         29  27  92  CALM    30.22R
#TOLLGATE       N/A         23  22  96  CALM    30.11R
#TROY SCHOOL    N/A         31  28  88  CALM    30.10R
#UKIAH          N/A         30  26  85  CALM    30.23R
#WESTON 4E      N/A         28  27  96  SW3     30.27R
$$

ORZ505-161610-
JOHN DAY BASIN

CITY            SKY/WX      TMP DP  RH  WIND    PRES   REMARKS
JOHN DAY        CLOUDY      31  29  92  W6      30.17R
#ANTELOPE 9ESE  N/A         25  22  88  CALM    N/A
#DAYVILLE SCHOOLN/A         32  29  89  CALM    30.16S
#MITCHELL 8NW   N/A         29  24  81  CALM    30.37R
#MONUMENT HS    N/A         22  19  88  CALM    30.18R
#MT. VERNON 5SE N/A         28  25  88  CALM    30.09S
#SPRAY SCHOOL   N/A         27  N/A N/A CALM    N/A
$$

ORZ506-161610-
OCHOCO AND JOHN DAY HIGHLANDS

CITY            SKY/WX      TMP DP  RH  WIND    PRES   REMARKS
#IZEE 6NW       N/A         25  24  96  CALM    N/A
#PINE MTN OBS   N/A         19  17  92  NW6     N/A
#SENECA         N/A         27  N/A N/A N2      N/A
#SENECA 9NW     N/A         26  23  88  CALM    30.27S
$$

ORZ049-161610-
GRANDE RONDE VALLEY

CITY            SKY/WX      TMP DP  RH  WIND    PRES   REMARKS
LA GRANDE       LGT SNOW    33  29  85  NW13    30.18  FOG WCI 24
#COVE SCHOOL    N/A         30  28  92  CALM    30.16S
#COVE 6NW       N/A         29  27  92  CALM    30.29S
#ELGIN 3N       N/A         27  24  88  CALM    30.13S
#ELGIN 1E       N/A         33  28  82  CALM    N/A
#IMBLER SCHOOL  N/A         23  22  96  CALM    30.13R
#ISLAND CITY 4N N/A         33  32  96  CALM    30.37F
#UNION 1S       N/A         33  30  89  N3      30.29R
$$

ORZ050-161610-
WALLOWA COUNTY

CITY            SKY/WX      TMP DP  RH  WIND    PRES   REMARKS
#IMNAHA SCHOOL  N/A         35  31  85  SE1     30.15R
#IMNAHA 10S     N/A         32  28  85  CALM    30.11R
#JOSEPH         N/A         27  23  85  CALM    30.58S
#JOSEPH 3N      N/A         27  24  88  CALM    30.12R
#JOSEPH 3W      N/A         26  25  96  CALM    30.59R
#LOSTINE        N/A         31  26  81  CALM    30.07S
#LOSTINE 3SE    N/A         30  27  88  E1      30.16R
#MT HOWARD 8000 N/A         14  11  88  NW2     29.87S
#PROMISE 1S     N/A         29  25  85  SW1     30.31F
#WALLOWA SCHOOL N/A         32  27  82  W1      30.11S



$$



USA.gov is the U.S. government's official web portal to all federal, state and local government web resources and services.